Extreme high temperature From: 23-07-2018 05:00 Until: 24-07-2018 01:00 warning for: Extreme high temperature Level: Yellow info button
suomi:
Hellevaroitus: Lähivuorokauden aikana on odotettavissa tukalaa hellettä.

svenska:
Varning för värmebölja: Under det närmaste dygnet är den svåra hettan att vänta.

english:
Heat wave warning: Warm weather is expected during the coming 24 hours. 


Thunder radar more information blitzortung!


Löydät sääaseman tiedot myös:

European Weather Network

Finland Weather Exchange

Weather Underground

AWEKAS



Weather Underground säähistoriasivu

Päivittäin yhteenveto Lokakuu 2, 2017 Yksiköt:  Englantilaiset    Metriset   Molemmat
« Edellinen Päivä
Seuraava Päivä »
Päivittäin Viikoittain Kuukausittain Vuosittain Mukautettu
  Korkea: Matala: Keskiarvo:
Lämpötila: TemperatureC °F 7.2 °F 8.1 °F
Kastepiste: DewpointC °F 4.3 °F 5.9 °F
Kosteus: Humidity % 78 % 85 %
Tuulen nopeus: WindSpeedKMH mph 0.0 mph 1.2 mph
Tuulenpuuska: WindSpeedGustKMH mph - -
Tuuli:- - SSE
Ilmanpaine: PressurehPa in 1008.4 in -
Sade: 0.0 in    
Historical Graphs
 
 
Taulukkotiedot Lokakuu 2, 2017
Aika Lämpötila Kastepiste Ilmanpaine Tuuli Tuulen nopeus Tuulenpuuska Kosteus Sademäärä (tunneittain)
TemperatureC °F DewpointC °F PressurehPa in Calm     Humidity % HourlyPrecipMM in
00:00 7.3 °F 6.5 °F 1026.0 in Calm   3.2 mph 95 % 0.0 in
00:15 7.3 °F 6.5 °F 1026.0 in Calm     95 % 0.0 in
00:30 7.2 °F 6.5 °F 1026.0 in Calm   1.6 mph 95 % 0.0 in
00:45 7.2 °F 6.5 °F 1025.6 in Calm     95 % 0.0 in
01:00 7.2 °F 6.5 °F 1025.6 in Calm     95 % 0.0 in
01:15 7.2 °F 6.6 °F 1025.3 in Calm     96 % 0.0 in
01:30 7.3 °F 6.7 °F 1025.3 in Calm   3.2 mph 96 % 0.0 in
01:45 7.4 °F 6.8 °F 1024.9 in Calm   8.0 mph 96 % 0.0 in
02:00 7.6 °F 6.8 °F 1024.9 in South 1.6 mph 6.4 mph 95 % 0.0 in
02:15 7.7 °F 6.9 °F 1024.6 in Calm   9.7 mph 95 % 0.0 in
02:30 7.8 °F 6.9 °F 1024.6 in South 1.6 mph 9.7 mph 94 % 0.0 in
02:45 7.9 °F 6.9 °F 1024.6 in South 1.6 mph 9.7 mph 93 % 0.0 in
03:00 8.0 °F 6.8 °F 1024.6 in South 1.6 mph 9.7 mph 92 % 0.0 in
03:15 8.0 °F 6.8 °F 1024.3 in South 1.6 mph 11.3 mph 92 % 0.0 in
03:30 8.0 °F 6.8 °F 1024.3 in South 1.6 mph 11.3 mph 92 % 0.0 in
03:45 7.9 °F 6.7 °F 1023.9 in SSE 1.6 mph 8.0 mph 92 % 0.0 in
04:00 7.8 °F 6.6 °F 1023.9 in SSE 1.6 mph 16.1 mph 92 % 0.0 in
04:15 7.7 °F 6.7 °F 1023.6 in SSE 1.6 mph 16.1 mph 93 % 0.0 in
04:30 7.7 °F 6.6 °F 1023.6 in SE 1.6 mph 8.0 mph 93 % 0.0 in
04:45 7.7 °F 6.4 °F 1023.2 in SSE 1.6 mph 11.3 mph 92 % 0.0 in
05:00 7.7 °F 6.5 °F 1023.2 in SSW 1.6 mph 6.4 mph 92 % 0.0 in
05:15 7.7 °F 6.4 °F 1022.9 in Calm   8.0 mph 92 % 0.0 in
05:30 7.6 °F 6.3 °F 1022.6 in Calm   3.2 mph 92 % 0.0 in
05:45 7.6 °F 6.3 °F 1022.6 in Calm   4.8 mph 92 % 0.0 in
06:00 7.6 °F 6.3 °F 1022.2 in South 1.6 mph 9.7 mph 92 % 0.0 in
06:15 7.6 °F 6.2 °F 1022.2 in South 3.2 mph 8.0 mph 91 % 0.0 in
06:30 7.6 °F 6.2 °F 1021.9 in Calm   1.6 mph 91 % 0.0 in
06:45 7.6 °F 6.2 °F 1021.6 in Calm   6.4 mph 91 % 0.0 in
07:00 7.5 °F 6.1 °F 1021.2 in Calm   6.4 mph 91 % 0.0 in
07:15 7.5 °F 6.1 °F 1020.9 in SSE 1.6 mph 11.3 mph 91 % 0.0 in
07:30 7.4 °F 6.1 °F 1020.9 in SE 1.6 mph 12.9 mph 91 % 0.0 in
07:45 7.4 °F 6.2 °F 1020.5 in SE 1.6 mph 11.3 mph 92 % 0.0 in
08:00 7.4 °F 6.1 °F 1020.5 in ESE 1.6 mph 11.3 mph 91 % 0.0 in
08:15 7.6 °F 6.1 °F 1020.5 in SSE 1.6 mph 14.5 mph 90 % 0.0 in
08:30 7.7 °F 6.0 °F 1020.2 in SSE 3.2 mph 16.1 mph 89 % 0.0 in
08:45 7.9 °F 6.2 °F 1020.2 in SSE 3.2 mph 14.5 mph 89 % 0.0 in
09:00 8.1 °F 6.2 °F 1020.2 in South 3.2 mph 12.9 mph 88 % 0.0 in
09:15 8.2 °F 6.3 °F 1020.2 in SSW 3.2 mph 11.3 mph 88 % 0.0 in
09:30 8.2 °F 6.2 °F 1019.9 in South 3.2 mph 11.3 mph 87 % 0.0 in
09:45 8.3 °F 6.2 °F 1019.5 in SSE 1.6 mph 11.3 mph 87 % 0.0 in
10:00 8.3 °F 6.4 °F 1019.2 in SSE 1.6 mph 9.7 mph 88 % 0.0 in
10:15 8.4 °F 6.5 °F 1019.2 in South 1.6 mph 11.3 mph 88 % 0.0 in
10:30 8.5 °F 6.5 °F 1018.8 in South 1.6 mph 11.3 mph 87 % 0.0 in
10:45 8.6 °F 6.4 °F 1018.8 in SSE 4.8 mph 20.9 mph 86 % 0.0 in
11:00 8.6 °F 6.3 °F 1018.5 in SSE 3.2 mph 22.5 mph 86 % 0.0 in
11:15 8.6 °F 6.3 °F 1018.5 in SSE 3.2 mph 11.3 mph 86 % 0.0 in
11:30 8.6 °F 6.6 °F 1017.8 in SE 3.2 mph 14.5 mph 87 % 0.0 in
11:45 8.8 °F 6.7 °F 1017.8 in SSE 3.2 mph 17.7 mph 87 % 0.0 in
12:00 9.0 °F 6.8 °F 1017.8 in SSE 1.6 mph 12.9 mph 86 % 0.0 in
12:15 9.2 °F 6.7 °F 1017.8 in SSE 1.6 mph 14.5 mph 84 % 0.0 in
12:30 9.3 °F 6.6 °F 1017.5 in SSE 3.2 mph 12.9 mph 83 % 0.0 in
12:45 9.4 °F 6.7 °F 1017.5 in SSE 4.8 mph 24.1 mph 83 % 0.0 in
13:00 9.5 °F 6.8 °F 1017.5 in SSE 3.2 mph 16.1 mph 83 % 0.0 in
13:15 9.5 °F 6.8 °F 1017.2 in SSE 3.2 mph 12.9 mph 83 % 0.0 in
13:30 9.6 °F 6.6 °F 1016.8 in South 6.4 mph 19.3 mph 82 % 0.0 in
13:45 9.5 °F 6.4 °F 1016.8 in SSE 4.8 mph 19.3 mph 81 % 0.0 in
14:00 9.5 °F 6.4 °F 1016.5 in SSE 6.4 mph 19.3 mph 81 % 0.0 in
14:15 9.5 °F 6.4 °F 1016.5 in SSE 4.8 mph 30.6 mph 81 % 0.0 in
14:30 9.5 °F 6.6 °F 1016.1 in SSE 3.2 mph 22.5 mph 82 % 0.0 in
14:45 9.5 °F 6.4 °F 1015.5 in Calm     81 % 0.0 in
15:00 9.6 °F 6.6 °F 1015.1 in Calm     82 % 0.0 in
15:15 9.6 °F 6.1 °F 1015.1 in Calm     79 % 0.0 in
15:30 9.5 °F 6.2 °F 1014.8 in Calm     80 % 0.0 in
15:45 9.5 °F 6.2 °F 1014.8 in Calm     80 % 0.0 in
16:00 9.3 °F 5.8 °F 1014.4 in Calm     79 % 0.0 in
16:15 9.2 °F 5.6 °F 1014.1 in Calm     78 % 0.0 in
16:30 9.1 °F 5.7 °F 1013.8 in Calm     79 % 0.0 in
16:45 9.1 °F 5.6 °F 1013.8 in Calm     79 % 0.0 in
17:00 8.9 °F 5.7 °F 1013.4 in Calm     80 % 0.0 in
17:15 8.8 °F 5.6 °F 1013.1 in Calm     80 % 0.0 in
17:30 8.8 °F 5.4 °F 1013.1 in Calm     79 % 0.0 in
17:45 8.7 °F 5.3 °F 1013.1 in Calm     79 % 0.0 in
18:00 8.7 °F 5.2 °F 1012.8 in Calm     79 % 0.0 in
18:15 8.6 °F 5.1 °F 1012.4 in Calm     79 % 0.0 in
18:30 8.4 °F 5.0 °F 1012.4 in Calm     79 % 0.0 in
18:45 8.3 °F 4.9 °F 1012.1 in Calm     79 % 0.0 in
19:00 8.3 °F 4.9 °F 1012.1 in Calm     79 % 0.0 in
19:15 8.3 °F 5.0 °F 1011.7 in Calm     80 % 0.0 in
19:30 8.2 °F 4.7 °F 1011.4 in Calm     79 % 0.0 in
19:45 8.1 °F 4.6 °F 1011.1 in Calm     79 % 0.0 in
20:00 8.1 °F 4.6 °F 1011.1 in Calm     79 % 0.0 in
20:15 7.9 °F 4.7 °F 1011.1 in Calm     80 % 0.0 in
20:30 7.9 °F 4.6 °F 1010.7 in Calm     80 % 0.0 in
20:45 7.8 °F 4.4 °F 1010.7 in Calm     79 % 0.0 in
21:00 7.7 °F 4.3 °F 1010.4 in Calm     79 % 0.0 in
21:15 7.6 °F 4.4 °F 1010.0 in Calm     80 % 0.0 in
21:30 7.6 °F 4.3 °F 1010.0 in Calm     80 % 0.0 in
21:45 7.6 °F 4.5 °F 1010.0 in Calm     81 % 0.0 in
22:00 7.7 °F 4.4 °F 1009.7 in Calm     80 % 0.0 in
22:15 7.7 °F 4.7 °F 1009.7 in Calm     81 % 0.0 in
22:30 7.8 °F 4.7 °F 1009.4 in Calm     81 % 0.0 in
22:45 7.8 °F 4.7 °F 1009.4 in Calm     81 % 0.0 in
23:00 7.8 °F 4.9 °F 1009.0 in Calm     82 % 0.0 in
23:15 7.9 °F 5.0 °F 1009.0 in Calm     82 % 0.0 in
23:30 7.8 °F 4.9 °F 1008.7 in Calm     82 % 0.0 in
23:45 7.8 °F 5.1 °F 1008.4 in Calm     83 % 0.0 in
Esan sääasema
Terveisin Weather Underground - 2.75 mb

Alkuperäinen skripti  Jim McMurry - jmcmurry@mwt.net Sovitettu myös templatelle  Wim van der Kuil - Leuven-Template.eu

Laitteet joita käytämme:

Sääasema
Davis VP2

Sääasemaohjelma
Cumulus

Sääaseman tietokone
Asus EeePC

Palveluntarjoaja
Suncomet

Davis VP2

Cumulus

Asus EeePC

Suncomet